Hourly Data Report for October 10, 2019

All times are specified in Local Standard Time (LST). Add 1 hour to adjust for Daylight Saving Time where and when it is observed.

ABBOTSFORD A
BRITISH COLUMBIA
Current Station Operator: NAVCAN

49°01'31.000" N
122°21'36.000" W
59.10 m
1100031
71108
YXX

Download Data

Hourly Data (October 2019)
Hourly Data Report for October 10, 2019
TIME Temp Definition
°C
Dew Point Definition
°C
Rel Hum Definition
%
Wind Dir Definition
10's deg

Wind Spd Definition
km/h
Visibility Definition
km
Stn Press Definition
kPa
Hmdx Definition


Wind Chill Definition


Weather Definition


00:00 1.3 -2.0 79 35 5 24.1 102.50     LegendNANA
01:00 0.4 -2.8 79 5 7 24.1 102.50     Clear
02:00 1.2 -2.3 77 2 7 24.1 102.49     LegendNANA
03:00 0.5 -2.8 79 4 8 24.1 102.52     LegendNANA
04:00 -0.1 -2.3 85 2 7 24.1 102.50   -3 Clear
05:00 0.7 -1.7 84 35 5 24.1 102.52     LegendNANA
06:00 -0.2 -2.4 86 1 6 48.3 102.54   -2 LegendNANA
07:00 0.3 -2.0 85 3 9 48.3 102.53     Clear
08:00 3.7 -0.3 75 36 9 48.3 102.54     LegendNANA
09:00 5.7 -0.2 66 2 7 48.3 102.54     LegendNANA
10:00 7.8 -0.9 54 3 10 48.3 102.51     Clear
11:00 9.0 -0.8 50 1 7 48.3 102.47     LegendNANA
12:00 10.1 -0.1 49 34 10 48.3 102.41     LegendNANA
13:00 11.2 -0.7 44 33 4 48.3 102.32     Mainly Clear
14:00 11.8 -2.7 36 27 4 48.3 102.26     LegendNANA
15:00 12.4 -2.6 35 30 4 48.3 102.20     LegendNANA
16:00 12.6 -2.2 36 1 4 48.3 102.16     Mostly Cloudy
17:00 10.4 0.2 49 1 7 48.3 102.10     LegendNANA
18:00 9.3 0.3 53 36 3 48.3 102.08     LegendNANA
19:00 7.6 1.2 64 4 3 24.1 102.06     Mostly Cloudy
20:00 6.6 2.5 75 35 6 24.1 102.06     LegendNANA
21:00 5.8 1.8 76 34 5 24.1 102.05     LegendNANA
22:00 4.4 1.3 80 1 9 24.1 102.00     Mainly Clear
23:00 4.3 1.6 83 3 14 24.1 101.96     LegendNANA

Notes on Data Quality.

Legend

  • E = Estimated
  • M = Missing
  • NA = Not Available
Date modified: